Regional Weather Roundup
Issued by NWS Newport/Morehead, NC

Current Version | Previous Version | Text Only | Print | Product List | Glossary On
Versions: 1 2 3 4 5 6 7 8 9 10 11 12 13 14 15 16 17 18 19 20 21 22 23 24 25 26 27 28 29 30 31 32 33 34 35 36 37 38 39 40 41 42 43 44 45 46 47 48 49 50
000
ASUS42 KMHX 280825
RWRMHX
WEATHER ROUNDUP FOR EASTERN NORTH CAROLINA
NATIONAL WEATHER SERVICE NEWPORT/MOREHEAD CITY NC
400 AM EDT SUN AUG 28 2016

NOTE: "FAIR" INDICATES FEW OR NO CLOUDS BELOW 12,000 FEET
WITH NO SIGNIFICANT WEATHER AND/OR OBSTRUCTIONS TO VISIBILITY

NCZ015>017-031-032-045>047-102-103-280900-
NORTH COAST

CITY           SKY/WX    TMP DP  RH WIND       PRES   REMARKS
EDENTON        CLEAR    N/A N/A N/A CALM      30.13F
ELIZABETH CITY PTCLDY    78  75  90 NE10      30.12F
KITTY HAWK     PTSUNNY   79  79 100 NE5       30.09F
MANTEO         MOCLDY    78  78  99 NE6       30.11S

$$

NCZ045>047-081-094-103-104-280900-
CENTRAL COAST

CITY           SKY/WX    TMP DP  RH WIND       PRES   REMARKS
FRISCO         MOCLDY    79  72  79 E6        30.09F

$$

NCZ095-097-098-100-101-280900-
SOUTHERN COAST

CITY           SKY/WX    TMP DP  RH WIND       PRES   REMARKS
BEAUFORT       CLOUDY    77  75  93 NE6       30.09F
CEDAR ISLAND   NOT AVBL
JACKSONVILLE   CLOUDY    77  75  93 N7        30.10F
PINEY ISLAND   NOT AVBL
WILMINGTON     MOCLDY    76  74  93 N6        30.09F


$$

NCZ011>013-027>030-043-044-078>080-089-090>093-098-280900-
COASTAL PLAIN

CITY           SKY/WX    TMP DP  RH WIND       PRES   REMARKS
AHOSKIE        CLOUDY    70  69  97 CALM      30.15S
CLINTON        PTCLDY    76  76  99 CALM      30.13S
ELIZABETHTOWN  PTCLDY    73  73 100 CALM      30.11F FOG
GOLDSBORO      PTCLDY    75  75 100 NE3       30.12F
GREENVILLE     CLOUDY    73  73 100 NE3       30.15S
HAVELOCK       PTCLDY    79  75  87 NE6       30.11F
KENANSVILLE    PTCLDY    73  73 100 N3        30.13S FOG
KINSTON        CLOUDY    75  74  95 NW3       30.14S
NEW BERN       PTCLDY    77  74  90 NE6       30.12F
RICHLANDS      CLOUDY    75  74  96 N3        30.12F
ROCKY MOUNT    CLEAR     71  71 100 NE3       30.15F
WASHINGTON     PTCLDY    73  72  98 N3        30.13S FOG
WHITEVILLE     CLEAR     76  74  95 CALM      30.10F

$$

AMZ130-135-150-152-154-156-158-170-250-252-270-ANZ085-086-088-633-658-670-280900-
MARINE OBSERVATIONS

STATION/POSITION TIME  TEMP    WIND        PRES    WAVE   SWELL
                       AIR SEA DIR/SP/G            HT/PER HT/PER
                 (UTC) (F)     (DEG/KT/KT) (MB)    (FT/S) (FT/S)
CHESAPEAKE LIGHT NOT AVBL
64 E VA BEACH    0750   81 81   70/ 17/ 19 1018.9    4/ 5   2/ 9
DUCK             0800   80 79   50/ 12/ 15 1019.0
2 E DUCK         0711      79                N/A     4/ 5
OREGON INLET     0800   80 79   40/  5/  8 1019.1
13E OREGON INLT  0700      82                N/A     4/ 5   3/ 5
HATTERAS CG      0800   79 84   70/  2/  3 1018.7
DIAMOND BUOY     0750   80 84   70/  4/  6 1018.8    3/ 8   3/ 8
CAPE LOOKOUT     0800   80      70/  4/  4 1018.6
BEAUFORT LAB     0800   77 82   30/  5/  6 1018.3
30 SE NEW RVR IN 0708   79 84   70/ 12/ 16 1018.9
30 SE NEW RVR IN 0725      84                N/A     3/ 8
27 SE WRIGHTSVLE 0808   82 84   80/  8/ 12 1018.5
5 SE WRIGHTSVLE  NOT AVBL
225 S CAPE HAT   0750   82 84   50/ 14/ 16 1016.6    4/ 8   3/ 8
41 SE CHARLESTON 0750   83 84   60/ 12/ 14 1016.9    4/ 8   3/ 8

$$



USA.gov is the U.S. government's official web portal to all federal, state and local government web resources and services.